Retour au catalogue

NOAA 16 DEB

ActifSSO
NORAD 41201·DEBRIS·🇺🇸 United States

Lancé Sep 21, 2000 depuis Vandenberg Space Force Base

Loading…

Prochains Passages (prochaines 24 heures)

TLE

FraisSource: Space-Track

Époque: Sep 13, 2026, 07:33 UTC

1 41201U 00055DE  26256.31487856  .00001474  00000-0  79592-3 0  9992
2 41201  98.7562 291.8073 0043266  78.0761 282.5258 14.13705484552479

Suivez NOAA 16 DEB en temps réel avec AllMySat

Download on the App Store